Find Starlink 3619

NORAD ID: 51787 Int'l Des: 2022-017 Owner: SPXS Country: US Constellation: starlink operational
LEOCIRCULAR

实时位置

正在加载3D地球...

关于 Starlink 3619

正在加载描述...

即将过境

Passes for default location (London). Set your location on the main map for personalized predictions.

高度历史

Loading altitude history...

两行轨道根数

1 51787U 22017V 26127.16142909 -.00004481 00000-0 -26364-3 0 9993
2 51787 53.2165 86.6294 0001351 85.2483 274.8664 15.08836487231101
Epoch: May 7, 2026 • Age: 8 hours

当前状态

高度 544.6 km
速度 7.60 km/s
星下点 49.36°N, 97.73°E
发射日期 Feb 25, 2022
运行时间 4.1 years
类型 internet

技术详情

分类 Payload
质量 297.00 kg
干质量 275.00 kg
总质量 297.00 kg
长度 0.20 m
直径 2.80 m
跨度 9.00 m
形状 Box + pan
制造商 SPXS
平台类型 Starlink
阶段状态 In Orbit
所有者/国家 SPXS/US

Most Searched